| time (UTC) | temp F | wind direction | speed MPH | gust MPH | rain 1hr in | rain 24hr in | rain mn in | humidity % | barometer mb |
| 20260902210530 | 102 | 83 | 2.0 | 4.0 | 0.00 | 0.00 | 0.00 | 33 | 1015.6 |
| 20260902210348 | 102 | 158 | 2.0 | 4.0 | 0.00 | 0.00 | 0.00 | 33 | 1010.6 |
| 20260902205534 | 103 | 17 | 3.0 | 5.0 | 0.00 | 0.00 | 0.00 | 33 | 1015.9 |
| 20260902204517 | 104 | 36 | 3.0 | 4.0 | 0.00 | 0.00 | 0.00 | 33 | 1016.0 |
| 20260902203519 | 103 | 130 | 4.0 | 7.0 | 0.00 | 0.00 | 0.00 | 34 | 1016.1 |
| 20260902203348 | 102 | 22 | 2.0 | 6.0 | 0.00 | 0.00 | 0.00 | 35 | 1011.2 |
| 20260902202601 | 102 | 169 | 4.0 | 7.0 | 0.00 | 0.00 | 0.00 | 36 | 1016.2 |
| 20260902201523 | 106 | 88 | 4.0 | 6.0 | 0.00 | 0.00 | 0.00 | 33 | 1016.4 |
| 20260902200525 | 105 | 76 | 3.0 | 6.0 | 0.00 | 0.00 | 0.00 | 32 | 1016.8 |
| 20260902200348 | 102 | 256 | 3.0 | 4.0 | 0.00 | 0.00 | 0.00 | 34 | 1011.8 |
| 20260902195546 | 103 | 54 | 3.0 | 5.0 | 0.00 | 0.00 | 0.00 | 35 | 1016.9 |
| 20260902194528 | 103 | 36 | 3.0 | 6.0 | 0.00 | 0.00 | 0.00 | 36 | 1017.0 |
| 20260902193524 | 103 | 10 | 3.0 | 5.0 | 0.00 | 0.00 | 0.00 | 35 | 1017.1 |
| 20260902193348 | 102 | 14 | 3.0 | 5.0 | 0.00 | 0.00 | 0.00 | 35 | 1012.1 |
| 20260902192520 | 102 | 86 | 3.0 | 5.0 | 0.00 | 0.00 | 0.00 | 36 | 1017.2 |
| 20260902191518 | 100 | 95 | 3.0 | 5.0 | 0.00 | 0.00 | 0.00 | 38 | 1017.4 |
| 20260902190539 | 102 | 44 | 4.0 | 8.0 | 0.00 | 0.00 | 0.00 | 37 | 1017.7 |
| 20260902190348 | 101 | 140 | 4.0 | 8.0 | 0.00 | 0.00 | 0.00 | 37 | 1012.7 |
| 20260902185602 | 101 | 151 | 3.0 | 6.0 | 0.00 | 0.00 | 0.00 | 37 | 1017.7 |
| 20260902184523 | 103 | 17 | 3.0 | 6.0 | 0.00 | 0.00 | 0.00 | 37 | 1017.9 |
| 20260902183525 | 102 | 125 | 3.0 | 6.0 | 0.00 | 0.00 | 0.00 | 37 | 1018.0 |
| 20260902183348 | 102 | 48 | 3.0 | 4.0 | 0.00 | 0.00 | 0.00 | 37 | 1013.1 |
| 20260902182528 | 101 | 148 | 3.0 | 5.0 | 0.00 | 0.00 | 0.00 | 38 | 1018.1 |
| 20260902181530 | 101 | 282 | 2.0 | 4.0 | 0.00 | 0.00 | 0.00 | 38 | 1018.5 |
| 20260902181348 | 101 | 269 | 3.0 | 5.0 | 0.00 | 0.00 | 0.00 | 36 | 1013.7 |
| 20260902180532 | 100 | 275 | 4.0 | 5.0 | 0.00 | 0.00 | 0.00 | 38 | 1018.7 |
| 20260902175516 | 98 | 144 | 5.0 | 8.0 | 0.00 | 0.00 | 0.00 | 41 | 1018.7 |
| 20260902175348 | 98 | 136 | 4.0 | 6.0 | 0.00 | 0.00 | 0.00 | 40 | 1014.1 |
| 20260902174538 | 99 | 145 | 4.0 | 6.0 | 0.00 | 0.00 | 0.00 | 41 | 1018.9 |
| 20260902174348 | 97 | 135 | 3.0 | 6.0 | 0.00 | 0.00 | 0.00 | 42 | 1014.4 |
| 20260902173521 | 99 | 193 | 4.0 | 6.0 | 0.00 | 0.00 | 0.00 | 41 | 1019.0 |
| 20260902173348 | 98 | 118 | 4.0 | 6.0 | 0.00 | 0.00 | 0.00 | 42 | 1014.6 |
| 20260902172848 | 97 | 104 | 5.0 | 7.0 | 0.00 | 0.00 | 0.00 | 42 | 1014.6 |
| 20260902172524 | 98 | 105 | 5.0 | 7.0 | 0.00 | 0.00 | 0.00 | 42 | 1019.2 |